Location: Larrial
(48.2758°N, 4.5331°W)
Time: 17:00:58
(UTC+00:00)

AAUSAT CUBESAT 2 - Pass Details

Date: 05 December 2021
Orbit: 572 x 586 km, 97.5° (Epoch: 16 January)

Event Time Altitude Azimuth Distance (km) Brightness Sun altitude
Rises 18:01:09 0° 221° (SW) 2,771 ? -15.3°
Reaches altitude 10° 18:05:13 10° 262° (W) 1,880 ? -16.0°
Maximum altitude 18:06:01 11° 273° (W) 1,850 ? -16.1°
Drops below altitude 10° 18:06:49 10° 285° (WNW) 1,883 ? -16.2°
Sets 18:10:55 0° 326° (NW) 2,790 ? -16.9°
